Location: Celina Elementary School
(33.3262°N, 96.7767°W)
Time: 09:05:22
(UTC+00:00)

Meteor 2-3 Rocket - Pass Details

Date: 26 November 2021
Orbit: 840 x 886 km, 81.2° (Epoch: 20 January)

Event Time Altitude Azimuth Distance (km) Brightness Sun altitude
Rises 12:16:58 0° 203° (SSW) 3,385 6.8 -10.9°
Reaches altitude 10° 12:19:28 10° 209° (SSW) 2,458 6.0 -10.4°
Maximum altitude 12:24:47 45° 282° (WNW) 1,140 4.0 -9.3°
Drops below altitude 10° 12:30:11 10° 354° (N) 2,497 5.9 -8.3°
Sets 12:32:45 0° 1° (N) 3,444 6.7 -7.8°
